Location: Bremen
(53.0793°N, 8.8017°E)
Time: 22:19:52
(UTC+01:00)

S-56A Canister/Altair - Pass Details

Date: 06 December 2021
Orbit: 634 x 2499 km, 38.9° (Epoch: 26 January)

Event Time Altitude Azimuth Distance (km) Brightness Sun altitude
Rises 01:07:18 0° 240° (WSW) 5,055 - -57.9°
Reaches altitude 10° 01:11:39 10° 230° (SW) 3,721 - -57.6°
Maximum altitude 01:18:44 26° 179° (S) 2,150 - -57.1°
Drops below altitude 10° 01:23:59 10° 125° (SE) 2,685 - -56.8°
Sets 01:26:35 0° 112° (ESE) 3,424 - -56.6°
